Sturgeon Bay, WI

7:35 PM CST on December 03, 2016 (GMT -0600)
Door County Cherryland

Weather History for KSUE - November, 2013

Change the Weather History Date:

Monday, November 11, 2013

  Actual Average Record
Temperature  
Mean Temperature 32 °F -  
Max Temperature 39 °F 43 °F 66 °F (1964)
Min Temperature 26 °F 30 °F 11 °F (1926)
Degree Days  
Heating Degree Days 32    
Moisture  
Dew Point 18 °F    
Average Humidity 62    
Maximum Humidity 87    
Minimum Humidity 40    
Precipitation  
Precipitation 0.08 in - - ()
Sea Level Pressure  
Sea Level Pressure 30.22 in    
Wind  
Wind Speed 15 mph (NW)    
Max Wind Speed 24 mph    
Max Gust Speed 33 mph    
Visibility 10 miles    
Events      
Averages and records for this station are not official NWS values.
T = Trace of Precipitation, MM = Missing Value Source: NWS Daily Summary

Daily Weather History Graph

Daily Weather History Graph

Search for Another Location

Airport or City:

Trip Planner

Search our weather history database for the weather conditions in past years. The results will help you decide how hot, cold, wet, or windy it might be!

Date:

Astronomy

Nov. 11, 2013 Rise Set
Actual Time 6:41 AM CST 4:25 PM CST
Civil Twilight 6:10 AM CST 4:56 PM CST
Nautical Twilight 5:35 AM CST 5:31 PM CST
Astronomical Twilight 5:00 AM CST 6:06 PM CST
Moon 1:19 PM CST (11/11) 12:11 AM CST (11/11)
Length of Visible Light 10h 46m
Length of Day
9h 43m
Waxing Gibbous, 66% of the Moon is Illuminated
Nov 11
Waxing Gibbous
Nov 17
Full
Nov 25
Last Quarter
Dec 2
New
Dec 9
First Quarter

Hourly Weather History & Observations

Time (CST) Temp. Windchill Dew Point Humidity Pressure Visibility Wind Dir Wind Speed Gust Speed Precip Events Conditions
12:15 AM 39.2 °F 31.6 °F 32.0 °F 75% 30.07 in 10.0 mi SW 12.7 mph 18.4 mph N/A   Mostly Cloudy
12:35 AM 37.4 °F 29.8 °F 33.8 °F 87% 30.07 in 10.0 mi WSW 11.5 mph 17.3 mph 0.01 in   Overcast
12:55 AM 37.4 °F 28.9 °F 33.8 °F 87% 30.06 in 10.0 mi West 13.8 mph 17.3 mph 0.02 in   Overcast
1:15 AM 37.4 °F 30.8 °F 33.8 °F 87% 30.05 in 10.0 mi West 9.2 mph - N/A   Overcast
1:35 AM 37.4 °F 30.8 °F 33.8 °F 87% 30.04 in 10.0 mi West 9.2 mph - N/A   Overcast
1:55 AM 37.4 °F 32.1 °F 33.8 °F 87% 30.04 in 10.0 mi WSW 6.9 mph - N/A   Overcast
2:15 AM 37.4 °F 32.8 °F 33.8 °F 87% 30.03 in 10.0 mi WSW 5.8 mph - N/A   Overcast
2:35 AM 37.4 °F 32.8 °F 33.8 °F 87% 30.03 in 10.0 mi WSW 5.8 mph - N/A   Overcast
2:55 AM 37.4 °F 33.8 °F 33.8 °F 87% 30.02 in 10.0 mi SW 4.6 mph - N/A   Overcast
3:15 AM 37.4 °F 32.8 °F 33.8 °F 87% 30.02 in 10.0 mi SW 5.8 mph - N/A   Overcast
3:35 AM 37.4 °F 32.1 °F 33.8 °F 87% 30.01 in 10.0 mi West 6.9 mph - 0.01 in   Overcast
3:55 AM 37.4 °F 31.4 °F 33.8 °F 87% 30.02 in 10.0 mi West 8.1 mph - 0.02 in   Overcast
4:15 AM 37.4 °F 30.3 °F 32.0 °F 81% 30.02 in 10.0 mi WNW 10.4 mph - 0.02 in   Overcast
4:35 AM 35.6 °F 28.6 °F 32.0 °F 87% 30.02 in 6.0 mi West 9.2 mph - 0.04 in   Overcast
4:55 AM 35.6 °F 29.2 °F 32.0 °F 87% 30.02 in 10.0 mi West 8.1 mph - 0.04 in   Mostly Cloudy
5:15 AM 35.6 °F 29.2 °F 32.0 °F 87% 30.02 in 10.0 mi West 8.1 mph - N/A   Overcast
5:35 AM 37.4 °F 30.3 °F 32.0 °F 81% 30.02 in 10.0 mi West 10.4 mph 16.1 mph N/A   Mostly Cloudy
5:55 AM 37.4 °F 29.8 °F 32.0 °F 81% 30.03 in 10.0 mi WNW 11.5 mph 17.3 mph N/A   Overcast
6:15 AM 37.4 °F 26.9 °F 30.2 °F 75% 30.04 in 10.0 mi NNW 20.7 mph 33.4 mph N/A   Mostly Cloudy
6:35 AM 32.0 °F 19.5 °F 26.6 °F 80% 30.07 in 4.0 mi North 21.9 mph 29.9 mph N/A   Overcast
6:55 AM 30.2 °F 18.1 °F 26.6 °F 86% 30.08 in 5.0 mi North 18.4 mph 29.9 mph N/A   Overcast
7:15 AM 30.2 °F 17.4 °F 23.0 °F 75% 30.10 in 7.0 mi North 20.7 mph 28.8 mph N/A   Overcast
7:35 AM 30.2 °F 18.5 °F 21.2 °F 69% 30.11 in 10.0 mi North 17.3 mph 27.6 mph N/A   Overcast
7:55 AM 28.4 °F 15.4 °F 19.4 °F 69% 30.13 in 10.0 mi NNW 19.6 mph 28.8 mph N/A   Overcast
8:15 AM 28.4 °F 14.7 °F 19.4 °F 69% 30.14 in 10.0 mi North 21.9 mph 31.1 mph N/A   Overcast
8:35 AM 28.4 °F 15.8 °F 17.6 °F 64% 30.15 in 10.0 mi North 18.4 mph 26.5 mph N/A   Overcast
8:55 AM 28.4 °F 14.4 °F 17.6 °F 64% 30.16 in 10.0 mi NNW 23.0 mph 26.5 mph N/A   Overcast
9:15 AM 28.4 °F 15.4 °F 15.8 °F 59% 30.16 in 10.0 mi NNW 19.6 mph 26.5 mph N/A   Overcast
9:35 AM 28.4 °F 15.4 °F 14.0 °F 55% 30.17 in 10.0 mi NW 19.6 mph 29.9 mph N/A   Overcast
9:55 AM 28.4 °F 15.8 °F 15.8 °F 59% 30.18 in 10.0 mi NNW 18.4 mph 28.8 mph N/A   Overcast
10:15 AM 28.4 °F 15.8 °F 14.0 °F 55% 30.19 in 10.0 mi NNW 18.4 mph 26.5 mph N/A   Mostly Cloudy
10:35 AM 28.4 °F 15.8 °F 12.2 °F 51% 30.20 in 10.0 mi NNW 18.4 mph 25.3 mph N/A   Scattered Clouds
10:55 AM 28.4 °F 15.4 °F 14.0 °F 55% 30.20 in 10.0 mi NNW 19.6 mph 25.3 mph N/A   Scattered Clouds
11:15 AM 28.4 °F 15.4 °F 12.2 °F 51% 30.21 in 10.0 mi North 19.6 mph 29.9 mph N/A   Partly Cloudy
11:35 AM 28.4 °F 15.1 °F 10.4 °F 47% 30.21 in 10.0 mi NNW 20.7 mph 26.5 mph N/A   Partly Cloudy
11:55 AM 28.4 °F 15.4 °F 10.4 °F 47% 30.21 in 10.0 mi NNW 19.6 mph 27.6 mph N/A   Clear
12:15 PM 28.4 °F 15.8 °F 8.6 °F 43% 30.21 in 10.0 mi North 18.4 mph 25.3 mph N/A   Clear
12:35 PM 28.4 °F 15.8 °F 10.4 °F 47% 30.21 in 10.0 mi NNW 18.4 mph - N/A   Partly Cloudy
12:55 PM 28.4 °F 15.4 °F 8.6 °F 43% 30.22 in 10.0 mi NNW 19.6 mph 26.5 mph N/A   Scattered Clouds
1:15 PM 28.4 °F 15.4 °F 8.6 °F 43% 30.22 in 10.0 mi North 19.6 mph 31.1 mph N/A   Scattered Clouds
1:35 PM 28.4 °F 15.8 °F 10.4 °F 47% 30.23 in 10.0 mi NW 18.4 mph 26.5 mph N/A   Mostly Cloudy
1:55 PM 28.4 °F 15.8 °F 10.4 °F 47% 30.24 in 10.0 mi NNW 18.4 mph 26.5 mph N/A   Mostly Cloudy
2:15 PM 30.2 °F 17.1 °F 10.4 °F 44% 30.25 in 10.0 mi NNW 21.9 mph 31.1 mph N/A   Mostly Cloudy
2:35 PM 28.4 °F 15.4 °F 8.6 °F 43% 30.24 in 10.0 mi NNW 19.6 mph 27.6 mph N/A   Mostly Cloudy
2:55 PM 30.2 °F 17.1 °F 10.4 °F 44% 30.25 in 10.0 mi NNW 21.9 mph 26.5 mph N/A   Overcast
3:15 PM 30.2 °F 17.1 °F 8.6 °F 40% 30.26 in 10.0 mi NNW 21.9 mph 27.6 mph N/A   Scattered Clouds
3:35 PM 28.4 °F 15.8 °F 8.6 °F 43% 30.27 in 10.0 mi NNW 18.4 mph 26.5 mph N/A   Mostly Cloudy
3:55 PM 28.4 °F 14.4 °F 10.4 °F 47% 30.28 in 10.0 mi NNW 23.0 mph 27.6 mph N/A   Mostly Cloudy
4:15 PM 28.4 °F 15.8 °F 10.4 °F 47% 30.30 in 10.0 mi NNW 18.4 mph 28.8 mph N/A   Overcast
4:35 PM 28.4 °F 15.8 °F 10.4 °F 47% 30.30 in 10.0 mi NNW 18.4 mph 21.9 mph N/A   Overcast
4:55 PM 28.4 °F 14.4 °F 10.4 °F 47% 30.32 in 10.0 mi NNW 23.0 mph 28.8 mph N/A   Overcast
5:15 PM 28.4 °F 14.7 °F 10.4 °F 47% 30.32 in 10.0 mi NW 21.9 mph - N/A   Overcast
5:35 PM 28.4 °F 15.4 °F 10.4 °F 47% 30.34 in 10.0 mi NNW 19.6 mph 26.5 mph N/A   Overcast
5:55 PM 28.4 °F 15.8 °F 10.4 °F 47% 30.34 in 10.0 mi NNW 18.4 mph 27.6 mph N/A   Overcast
6:15 PM 28.4 °F 16.6 °F 12.2 °F 51% 30.35 in 10.0 mi NNW 16.1 mph 24.2 mph N/A   Overcast
6:35 PM 26.6 °F 11.7 °F 12.2 °F 55% 30.36 in 10.0 mi NNW 24.2 mph 31.1 mph N/A   Overcast
6:55 PM 26.6 °F 12.7 °F 12.2 °F 55% 30.37 in 10.0 mi North 20.7 mph 29.9 mph N/A   Overcast
7:15 PM 26.6 °F 11.7 °F 10.4 °F 51% 30.38 in 10.0 mi NNW 24.2 mph - N/A   Overcast
7:35 PM 26.6 °F 13.4 °F 12.2 °F 55% 30.39 in 10.0 mi NNW 18.4 mph 27.6 mph N/A   Overcast
7:55 PM 26.6 °F 12.4 °F 10.4 °F 51% 30.40 in 10.0 mi North 21.9 mph 31.1 mph N/A   Overcast
8:15 PM 26.6 °F 12.4 °F 10.4 °F 51% 30.41 in 10.0 mi NNW 21.9 mph 31.1 mph N/A   Overcast
8:35 PM 26.6 °F 12.4 °F 10.4 °F 51% 30.41 in 10.0 mi NNW 21.9 mph - N/A   Overcast
8:55 PM 26.6 °F 13.8 °F 12.2 °F 55% 30.42 in 10.0 mi NNW 17.3 mph 31.1 mph N/A   Mostly Cloudy
9:15 PM 26.6 °F 13.4 °F 14.0 °F 59% 30.43 in 10.0 mi North 18.4 mph 27.6 mph N/A   Mostly Cloudy
9:35 PM 26.6 °F 13.8 °F 14.0 °F 59% 30.44 in 10.0 mi NNW 17.3 mph 24.2 mph N/A   Overcast
9:55 PM 26.6 °F 14.3 °F 15.8 °F 64% 30.44 in 10.0 mi NNW 16.1 mph 21.9 mph N/A   Overcast
10:15 PM 26.6 °F 12.7 °F 14.0 °F 59% 30.45 in 10.0 mi NNW 20.7 mph 26.5 mph N/A   Overcast
10:35 PM 26.6 °F 13.1 °F 14.0 °F 59% 30.46 in 10.0 mi NNW 19.6 mph 27.6 mph N/A   Overcast
10:55 PM 26.6 °F 13.8 °F 14.0 °F 59% 30.46 in 10.0 mi NNW 17.3 mph 28.8 mph N/A   Overcast
11:15 PM 26.6 °F 12.7 °F 14.0 °F 59% 30.47 in 10.0 mi NNW 20.7 mph 28.8 mph N/A   Overcast
11:35 PM 26.6 °F 12.4 °F 12.2 °F 55% 30.48 in 10.0 mi NNW 21.9 mph 26.5 mph N/A   Overcast
11:55 PM 26.6 °F 14.7 °F 12.2 °F 55% 30.49 in 10.0 mi NNW 15.0 mph 27.6 mph N/A   Mostly Cloudy